Back to catalog

STARLINK-31066

AliveCommunicationsVLEO
NORAD 58676·PAYLOAD·🇺🇸 United States

Launched Dec 29, 2023 from Cape Canaveral Space Force Station

Loading…

Next Passes (next 24 hours)

TLE

FreshSource: CelesTrak SupGP

Epoch: Sep 14, 2026, 21:51 UTC

1 58676C 23211K   26257.91090278  .00031998  00000+0  11591-2 0  2574
2 58676  43.0018 242.4360 0001322 259.0989 321.8135 15.27557970    13

Track STARLINK-31066 in real time with AllMySat

Download on the App Store